Regional Weather Roundup
Issued by NWS Glasgow, MT

Home | Current Version | Previous Version | Text Only | Print | Product List | Glossary On
Versions: 1 2 3 4 5 6 7 8 9 10 11 12 13 14 15 16 17 18 19 20 21 22 23 24 25 26 27 28 29 30 31 32 33 34 35 36 37 38 39 40 41 42 43 44 45 46 47 48 49 50
000
ASUS45 KGGW 132015
RWRGGW
HOURLY REGIONAL WEATHER ROUNDUP FOR NORTHEAST MONTANA
NATIONAL WEATHER SERVICE GLASGOW MONTANA
100 PM MST SAT FEB 13 2016

NOTE: "FAIR" INDICATES FEW OR NO CLOUDS BELOW 12,000 FEET WITH NO
SIGNIFICANT WEATHER AND/OR OBSTRUCTIONS TO VISISBILITY.

NORTHEAST MONTANA


CITY           SKY/WX    TMP DP  RH WIND       PRES   REMARKS
GLASGOW        CLOUDY    28  25  88 SW3       29.79S
PLENTYWOOD       N/A     23  21  92 S14G24      N/A
WOLF POINT     NOT AVBL
JORDAN           N/A     40  34  79 NW14      29.83R
WINNETT          N/A     47  29  49 CALM        N/A
SIDNEY         CLOUDY    28  23  80 SE12      29.82F
GLENDIVE       CLOUDY    34  28  80 CALM      29.83F
MALTA            N/A     33  30  88 SW5G14      N/A
SCOBEY           N/A     22  11  62 SE7       29.76F HAZE

FORT PECK REPORTS


CITY           SKY/WX    TMP DP  RH WIND       PRES   REMARKS
FORT PECK        N/A     29  29 100 W3          N/A
THE PINES        N/A     32  30  93 SW2         N/A

SOUTHEAST MONTANA


CITY           SKY/WX    TMP DP  RH WIND       PRES   REMARKS
BILLINGS       CLOUDY    40  32  73 SW15      29.94S
MILES CITY     LGT RAIN  43  37  79 W13       29.84R
BAKER          CLOUDY    39  31  72 SE6       29.79F
LIVINGSTON     MOSUNNY   40  29  64 W25G33    30.01S

CENTRAL MONTANA


CITY           SKY/WX    TMP DP  RH WIND       PRES   REMARKS
HAVRE          CLOUDY    46  32  58 W17G29    29.85R
LEWISTOWN      CLOUDY    43  26  51 W31G43    29.90S
GREAT FALLS    CLOUDY    47  22  37 W25G32    29.94S
CUT BANK       PTSUNNY   47  21  35 W30G39    29.91R
HELENA         MOSUNNY   44  23  43 W28G36    30.03F
BUTTE          CLOUDY    36  21  54 N18G28    30.08R
BOZEMAN        CLOUDY    38  28  67 W10       30.07S

WESTERN MONTANA


CITY           SKY/WX    TMP DP  RH WIND       PRES   REMARKS
MISSOULA       CLOUDY    42  33  70 NE5       30.16F
KALISPELL      NOT AVBL

NORTH DAKOTA


CITY           SKY/WX    TMP DP  RH WIND       PRES   REMARKS
WILLISTON      CLOUDY    22  15  75 SE10      29.85F
DICKINSON      CLOUDY    17  14  88 S13G22    29.87R FOG
MINOT          FLURRIES  18   6  59 SE17G25   29.98F
BISMARCK       FLURRIES  16   8  71 SE22G28   30.04F WCI  -2

SOUTHERN SASKATCHEWAN


CITY           SKY/WX    TMP DP  RH WIND       PRES   REMARKS
REGINA         CLOUDY    19  14  79 SE21G32   29.78F
ESTEVAN        LGT SNOW  18  10  73 S21G26    29.90F DRFTSNOW
SWIFT CURRENT  CLOUDY    23  23 100 W26G33    29.70R FOG




USA.gov is the U.S. government's official web portal to all federal, state and local government web resources and services.